Find Kosmos-2181

NORAD ID: 21902 Int'l Des: 1992-012 Owner: VMFR Country: RU operational
LEOCIRCULARPOLAR

リアルタイム位置

3D地球を読み込み中...

Kosmos-2181について

説明を読み込み中...

次回通過

Passes for default location (London). Set your location on the main map for personalized predictions.

高度履歴

Loading altitude history...

軌道要素

1 21902U 92012A 26137.78340927 .00000029 00000-0 14888-4 0 9991
2 21902 82.9425 330.3867 0028887 161.5211 209.5342 13.72569216712159
Epoch: May 17, 2026 • Age: 9 hours

現在のステータス

高度 1017.1 km
速度 7.33 km/s
衛星直下点 -13.35°S, 41.14°E
打ち上げ日 Mar 9, 1992
運用期間 34.1 years
タイプ other

技術仕様

分類 Payload
質量 800.00 kg
乾燥質量 800.00 kg
総質量 800.00 kg
長さ 5.00 m
直径 2.10 m
スパン 17.00 m
形状 Cyl + Ant
製造者 POL
バスタイプ KAUR-1 11F643
フェーズステータス In Orbit
所有者/国 VMFR/RU

Most Searched